Check out our new BloomSky Weather System.

Active alerts


No alerts


Thunder radar  blitzortung!


Rain radar more information rain snow radar


Visit our other weather sites:

Template documentation
and downloads

And another site



Weather Underground History page Text

Daily Summary for January 21, 2017 Units:  Metric    English   Both
« Previous Day
Next Day »
Daily Weekly Monthly Yearly Custom
  High: Low: Average:
Temperature: 25.7 °C 16.3 °C 19.7 °C
Dew Point: 19.9 °C 11.8 °C 16.9 °C
Humidity: 100 % 54 % 86 %
Wind Speed: 25.7 km/h 0 km/h 2.9 km/h
Wind Gust: 27.4 km/h - -
Wind:- - South
Pressure: 1004.6 hPa 995.8 hPa -
Precipitation: 0.51 mm    
Historical Graphs
 
 
Tabular Data for January 21, 2017
Time Temperature Dew Point Pressure Wind Wind Speed Wind Gust Humidity Rainfall Rate (Hourly)
00:02 17.7 °C 17.2 °C 1004.6 hPa ESE 1.6 km/h 3.2 km/h 97 % 5.84 mm
00:07 17.7 °C 17.2 °C 1004.3 hPa ESE 1.6 km/h 3.2 km/h 97 % 2.79 mm
00:12 17.6 °C 17.3 °C 1004.3 hPa Calm   3.2 km/h 98 % 0.25 mm
00:17 17.6 °C 17.3 °C 1004.3 hPa North 1.6 km/h 3.2 km/h 98 % 0 mm
00:22 17.6 °C 17.3 °C 1004.3 hPa Calm   3.2 km/h 98 % 0 mm
00:27 17.5 °C 17.2 °C 1004.3 hPa Calm   1.6 km/h 98 % 0 mm
00:32 17.5 °C 17.2 °C 1003.9 hPa Calm   1.6 km/h 98 % 0 mm
00:37 17.6 °C 17.3 °C 1003.9 hPa Calm   1.6 km/h 98 % 0 mm
00:42 17.6 °C 17.3 °C 1003.9 hPa Calm   1.6 km/h 98 % 0 mm
00:47 17.6 °C 17.3 °C 1003.6 hPa Calm   1.6 km/h 98 % 0 mm
00:52 17.6 °C 17.3 °C 1003.6 hPa Calm   1.6 km/h 98 % 0 mm
00:57 17.6 °C 17.3 °C 1003.6 hPa Calm   1.6 km/h 98 % 0 mm
01:02 17.6 °C 17.3 °C 1003.6 hPa NNW 1.6 km/h 1.6 km/h 98 % 0 mm
01:07 17.7 °C 17.4 °C 1003.6 hPa Calm   3.2 km/h 98 % 0 mm
01:12 17.6 °C 17.3 °C 1003.6 hPa Calm   3.2 km/h 98 % 0 mm
01:17 17.7 °C 17.4 °C 1003.6 hPa Calm   3.2 km/h 98 % 0 mm
01:22 17.6 °C 17.3 °C 1003.6 hPa Calm   3.2 km/h 98 % 0 mm
01:27 17.6 °C 17.3 °C 1003.6 hPa Calm   1.6 km/h 98 % 0 mm
01:32 17.6 °C 17.3 °C 1003.3 hPa Calm   1.6 km/h 98 % 0 mm
01:37 17.6 °C 17.3 °C 1003.6 hPa Calm   1.6 km/h 98 % 0 mm
01:42 17.6 °C 17.3 °C 1003.6 hPa Calm   1.6 km/h 98 % 0 mm
01:47 17.6 °C 17.3 °C 1003.3 hPa Calm   1.6 km/h 98 % 0 mm
01:52 17.5 °C 17.2 °C 1003.3 hPa Calm   1.6 km/h 98 % 0 mm
01:57 17.3 °C 17 °C 1003.3 hPa Calm   1.6 km/h 98 % 0 mm
02:02 17.3 °C 17 °C 1003.3 hPa Calm   1.6 km/h 98 % 0 mm
02:07 17.2 °C 16.9 °C 1003.3 hPa Calm   1.6 km/h 98 % 0 mm
02:12 17.1 °C 16.8 °C 1003.3 hPa Calm   1.6 km/h 98 % 0 mm
02:17 17.1 °C 16.9 °C 1003.3 hPa Calm   1.6 km/h 99 % 0 mm
02:22 17 °C 16.7 °C 1003.3 hPa Calm   1.6 km/h 98 % 0 mm
02:27 16.9 °C 16.6 °C 1003.3 hPa Calm   1.6 km/h 98 % 0 mm
02:32 16.9 °C 16.7 °C 1003.3 hPa Calm     99 % 0 mm
02:38 17 °C 16.8 °C 1003.3 hPa Calm   1.6 km/h 99 % 0 mm
02:43 17.1 °C 16.9 °C 1003.3 hPa Calm   1.6 km/h 99 % 0 mm
02:48 17.1 °C 16.9 °C 1003.3 hPa Calm   1.6 km/h 99 % 0 mm
02:53 17.2 °C 17 °C 1002.9 hPa ESE 1.6 km/h 1.6 km/h 99 % 0 mm
02:58 17.2 °C 17 °C 1002.9 hPa ESE 3.2 km/h 3.2 km/h 99 % 0 mm
03:03 17.2 °C 17 °C 1002.9 hPa ESE 1.6 km/h 3.2 km/h 99 % 0 mm
03:08 17.2 °C 17 °C 1002.9 hPa East 4.8 km/h 4.8 km/h 99 % 0 mm
03:13 17.2 °C 17 °C 1002.9 hPa East 1.6 km/h 4.8 km/h 99 % 0 mm
03:18 17.2 °C 17 °C 1002.6 hPa East 1.6 km/h 4.8 km/h 99 % 0 mm
03:23 17.2 °C 17 °C 1002.6 hPa ESE 1.6 km/h 4.8 km/h 99 % 0 mm
03:28 17.2 °C 17 °C 1002.3 hPa Calm   4.8 km/h 99 % 0 mm
03:33 17.2 °C 17 °C 1002.3 hPa ESE 3.2 km/h 4.8 km/h 99 % 0 mm
03:38 17.1 °C 16.9 °C 1002.3 hPa East 1.6 km/h 6.4 km/h 99 % 0 mm
03:43 17.1 °C 16.9 °C 1001.9 hPa SE 1.6 km/h 6.4 km/h 99 % 0 mm
03:48 16.9 °C 16.7 °C 1001.6 hPa Calm   6.4 km/h 99 % 0 mm
03:53 16.9 °C 16.7 °C 1001.6 hPa SE 1.6 km/h 4.8 km/h 99 % 0 mm
03:58 16.8 °C 16.6 °C 1001.6 hPa SE 1.6 km/h 4.8 km/h 99 % 0 mm
04:03 16.8 °C 16.6 °C 1001.6 hPa ESE 1.6 km/h 3.2 km/h 99 % 0 mm
04:08 16.8 °C 16.6 °C 1001.6 hPa Calm   3.2 km/h 99 % 0 mm
04:13 16.6 °C 16.4 °C 1001.6 hPa Calm   3.2 km/h 99 % 0 mm
04:18 16.5 °C 16.3 °C 1001.9 hPa ESE 1.6 km/h 1.6 km/h 99 % 0 mm
04:23 16.6 °C 16.4 °C 1001.9 hPa Calm   1.6 km/h 99 % 0 mm
04:28 16.5 °C 16.3 °C 1001.9 hPa Calm   1.6 km/h 99 % 0 mm
04:33 16.4 °C 16.2 °C 1002.3 hPa Calm   1.6 km/h 99 % 0 mm
04:38 16.6 °C 16.4 °C 1002.3 hPa Calm   1.6 km/h 99 % 0 mm
04:43 16.7 °C 16.5 °C 1002.3 hPa South 1.6 km/h 3.2 km/h 99 % 0 mm
04:48 16.8 °C 16.6 °C 1002.3 hPa South 1.6 km/h 3.2 km/h 99 % 0 mm
04:53 17 °C 16.8 °C 1001.9 hPa ESE 1.6 km/h 3.2 km/h 99 % 0 mm
04:58 17.1 °C 16.9 °C 1002.3 hPa SSE 1.6 km/h 3.2 km/h 99 % 0 mm
05:03 17.2 °C 17 °C 1002.3 hPa SSE 1.6 km/h 3.2 km/h 99 % 0 mm
05:08 17.3 °C 17.1 °C 1002.3 hPa SE 1.6 km/h 4.8 km/h 99 % 0 mm
05:13 17.4 °C 17.2 °C 1002.3 hPa SE 3.2 km/h 4.8 km/h 99 % 0 mm
05:18 17.5 °C 17.3 °C 1002.3 hPa South 1.6 km/h 4.8 km/h 99 % 0.25 mm
05:23 17.6 °C 17.4 °C 1002.3 hPa Calm   4.8 km/h 99 % 0.25 mm
05:28 17.6 °C 17.4 °C 1002.3 hPa SE 1.6 km/h 4.8 km/h 99 % 0.25 mm
05:33 17.7 °C 17.5 °C 1002.3 hPa Calm   3.2 km/h 99 % 0.25 mm
05:38 17.7 °C 17.5 °C 1002.3 hPa Calm   3.2 km/h 99 % 0.25 mm
05:43 17.7 °C 17.5 °C 1002.3 hPa Calm   3.2 km/h 99 % 0.25 mm
05:48 17.7 °C 17.5 °C 1002.3 hPa Calm   1.6 km/h 99 % 0.25 mm
05:53 17.7 °C 17.5 °C 1001.9 hPa Calm   1.6 km/h 99 % 0.25 mm
05:59 17.7 °C 17.5 °C 1002.3 hPa SE 3.2 km/h 3.2 km/h 99 % 0.25 mm
06:04 17.8 °C 17.6 °C 1002.3 hPa Calm   3.2 km/h 99 % 0.25 mm
06:09 17.8 °C 17.6 °C 1002.6 hPa SSW 3.2 km/h 3.2 km/h 99 % 0.25 mm
06:14 17.9 °C 17.7 °C 1002.6 hPa SSE 3.2 km/h 6.4 km/h 99 % 0.25 mm
06:19 17.9 °C 17.9 °C 1002.6 hPa South 3.2 km/h 6.4 km/h 100 % 0 mm
06:24 17.9 °C 17.9 °C 1002.9 hPa SSW 3.2 km/h 6.4 km/h 100 % 0 mm
06:29 18 °C 18 °C 1002.9 hPa South 3.2 km/h 6.4 km/h 100 % 0 mm
06:34 18.1 °C 18.1 °C 1002.9 hPa SSE 1.6 km/h 6.4 km/h 100 % 0 mm
06:39 18.1 °C 18.1 °C 1002.9 hPa South 3.2 km/h 6.4 km/h 100 % 0 mm
06:44 18.1 °C 18.1 °C 1002.9 hPa Calm   6.4 km/h 100 % 0 mm
06:49 18.1 °C 18.1 °C 1002.9 hPa SE 1.6 km/h 6.4 km/h 100 % 0 mm
06:54 18.1 °C 18.1 °C 1002.6 hPa Calm   4.8 km/h 100 % 0 mm
06:59 18.2 °C 18.2 °C 1002.6 hPa SSE 1.6 km/h 4.8 km/h 100 % 0 mm
07:04 18.3 °C 18.3 °C 1002.6 hPa SSE 1.6 km/h 4.8 km/h 100 % 0 mm
07:09 18.3 °C 18.3 °C 1002.6 hPa SE 3.2 km/h 4.8 km/h 100 % 0 mm
07:14 18.3 °C 18.3 °C 1002.6 hPa SSE 1.6 km/h 4.8 km/h 100 % 0 mm
07:19 18.4 °C 18.4 °C 1002.6 hPa South 1.6 km/h 4.8 km/h 100 % 0 mm
07:24 18.4 °C 18.4 °C 1002.6 hPa SSE 1.6 km/h 4.8 km/h 100 % 0 mm
07:29 18.4 °C 18.4 °C 1002.6 hPa SE 1.6 km/h 3.2 km/h 100 % 0 mm
07:34 18.4 °C 18.4 °C 1002.9 hPa Calm   3.2 km/h 100 % 0 mm
07:39 18.4 °C 18.4 °C 1002.9 hPa SSE 1.6 km/h 3.2 km/h 100 % 0 mm
07:44 18.5 °C 18.5 °C 1002.9 hPa SSE 1.6 km/h 4.8 km/h 100 % 0 mm
07:49 18.6 °C 18.6 °C 1002.9 hPa SE 3.2 km/h 4.8 km/h 100 % 0 mm
07:54 18.6 °C 18.6 °C 1002.9 hPa SSE 3.2 km/h 6.4 km/h 100 % 0 mm
07:59 18.6 °C 18.6 °C 1002.9 hPa South 3.2 km/h 6.4 km/h 100 % 0 mm
08:04 18.5 °C 18.5 °C 1002.9 hPa South 3.2 km/h 6.4 km/h 100 % 0 mm
08:09 18.5 °C 18.5 °C 1002.6 hPa Calm   4.8 km/h 100 % 0 mm
08:14 18.6 °C 18.6 °C 1002.9 hPa Calm   4.8 km/h 100 % 0 mm
08:19 18.5 °C 18.5 °C 1002.9 hPa Calm   4.8 km/h 100 % 0 mm
08:24 18.6 °C 18.6 °C 1002.9 hPa SSE 1.6 km/h 3.2 km/h 100 % 0 mm
08:29 18.6 °C 18.6 °C 1002.6 hPa Calm   1.6 km/h 100 % 0 mm
08:34 18.6 °C 18.6 °C 1002.6 hPa East 1.6 km/h 3.2 km/h 100 % 0 mm
08:39 18.6 °C 18.6 °C 1002.6 hPa ESE 1.6 km/h 6.4 km/h 100 % 0 mm
08:44 18.6 °C 18.6 °C 1002.6 hPa SE 3.2 km/h 6.4 km/h 100 % 0 mm
08:49 18.7 °C 18.7 °C 1002.6 hPa SE 3.2 km/h 6.4 km/h 100 % 0 mm
08:54 18.7 °C 18.7 °C 1002.6 hPa East 3.2 km/h 6.4 km/h 100 % 0 mm
08:59 18.7 °C 18.7 °C 1002.6 hPa SE 4.8 km/h 8 km/h 100 % 0 mm
09:04 18.7 °C 18.7 °C 1002.6 hPa SSE 3.2 km/h 8 km/h 100 % 0 mm
09:09 18.8 °C 18.8 °C 1002.6 hPa SSE 1.6 km/h 8 km/h 100 % 0 mm
09:14 18.8 °C 18.8 °C 1002.6 hPa SE 3.2 km/h 6.4 km/h 100 % 0 mm
09:19 18.8 °C 18.8 °C 1002.3 hPa SE 3.2 km/h 6.4 km/h 100 % 0 mm
09:24 18.8 °C 18.8 °C 1002.6 hPa SE 3.2 km/h 6.4 km/h 100 % 0 mm
09:29 18.9 °C 18.9 °C 1002.3 hPa ESE 3.2 km/h 9.7 km/h 100 % 0 mm
09:34 19 °C 19 °C 1002.3 hPa SE 6.4 km/h 9.7 km/h 100 % 0 mm
09:39 19.1 °C 19.1 °C 1002.6 hPa SW 1.6 km/h 9.7 km/h 100 % 0 mm
09:44 19.2 °C 19.2 °C 1002.6 hPa SE 4.8 km/h 8 km/h 100 % 0 mm
09:49 19.3 °C 19.3 °C 1002.3 hPa SE 3.2 km/h 8 km/h 100 % 0 mm
09:54 19.4 °C 19.4 °C 1002.6 hPa SSE 1.6 km/h 9.7 km/h 100 % 0 mm
09:59 19.5 °C 19.5 °C 1002.3 hPa SSE 3.2 km/h 9.7 km/h 100 % 0 mm
10:04 19.5 °C 19.5 °C 1002.3 hPa SE 6.4 km/h 9.7 km/h 100 % 0 mm
10:09 19.7 °C 19.7 °C 1002.3 hPa SSW 4.8 km/h 11.3 km/h 100 % 0 mm
10:14 19.9 °C 19.9 °C 1002.3 hPa SSW 3.2 km/h 11.3 km/h 100 % 0 mm
10:19 20.1 °C 19.9 °C 1002.6 hPa SE 6.4 km/h 12.9 km/h 99 % 0 mm
10:24 20.1 °C 19.9 °C 1002.3 hPa South 3.2 km/h 12.9 km/h 99 % 0 mm
10:29 19.8 °C 19.5 °C 1002.3 hPa SSE 11.3 km/h 12.9 km/h 98 % 0 mm
10:34 19.6 °C 19.3 °C 1002.3 hPa South 8 km/h 16.1 km/h 98 % 0 mm
10:39 19.4 °C 18.9 °C 1002.3 hPa South 4.8 km/h 17.7 km/h 97 % 0 mm
10:44 19.4 °C 18.9 °C 1002.3 hPa South 6.4 km/h 17.7 km/h 97 % 0 mm
10:49 19.6 °C 18.9 °C 1002.3 hPa South 4.8 km/h 17.7 km/h 96 % 0 mm
10:54 19.8 °C 19 °C 1001.9 hPa SE 8 km/h 17.7 km/h 95 % 0 mm
10:59 19.9 °C 18.9 °C 1001.9 hPa South 4.8 km/h 17.7 km/h 94 % 0 mm
11:05 20.1 °C 18.9 °C 1001.9 hPa SSW 8 km/h 17.7 km/h 93 % 0 mm
11:10 20.1 °C 18.8 °C 1001.9 hPa South 6.4 km/h 16.1 km/h 92 % 0 mm
11:15 20.2 °C 18.7 °C 1001.6 hPa SSW 1.6 km/h 16.1 km/h 91 % 0 mm
11:20 20.3 °C 18.6 °C 1001.2 hPa SW 8 km/h 16.1 km/h 90 % 0 mm
11:25 20.4 °C 18.7 °C 1001.2 hPa SE 6.4 km/h 16.1 km/h 90 % 0 mm
11:30 20.4 °C 18.7 °C 1001.2 hPa SSE 4.8 km/h 12.9 km/h 90 % 0 mm
11:35 20.5 °C 18.6 °C 1000.9 hPa SSW 8 km/h 12.9 km/h 89 % 0 mm
11:40 20.6 °C 18.7 °C 1000.9 hPa South 6.4 km/h 11.3 km/h 89 % 0 mm
11:45 20.7 °C 18.8 °C 1000.6 hPa South 4.8 km/h 11.3 km/h 89 % 0 mm
11:50 20.7 °C 18.8 °C 1000.6 hPa SSE 6.4 km/h 11.3 km/h 89 % 0 mm
11:55 20.8 °C 18.9 °C 1000.6 hPa SSE 3.2 km/h 9.7 km/h 89 % 0 mm
12:00 20.9 °C 18.8 °C 1000.2 hPa SSE 11.3 km/h 11.3 km/h 88 % 0 mm
12:05 21.1 °C 19 °C 999.9 hPa South 3.2 km/h 11.3 km/h 88 % 0 mm
12:10 21.3 °C 19.2 °C 999.9 hPa SSE 9.7 km/h 12.9 km/h 88 % 0 mm
12:15 21.5 °C 19.2 °C 999.5 hPa SE 4.8 km/h 12.9 km/h 87 % 0 mm
12:20 21.7 °C 19.3 °C 999.5 hPa South 6.4 km/h 12.9 km/h 86 % 0 mm
12:25 21.8 °C 19 °C 999.5 hPa South 19.3 km/h 20.9 km/h 84 % 0 mm
12:30 21.9 °C 19.1 °C 999.2 hPa SSW 12.9 km/h 20.9 km/h 84 % 0 mm
12:35 22 °C 18.8 °C 999.2 hPa SW 11.3 km/h 22.5 km/h 82 % 0 mm
12:40 22.1 °C 18.9 °C 998.9 hPa SSW 6.4 km/h 22.5 km/h 82 % 0 mm
12:45 22.2 °C 19 °C 998.5 hPa South 8 km/h 22.5 km/h 82 % 0 mm
12:50 22.4 °C 19 °C 998.5 hPa Calm   17.7 km/h 81 % 0 mm
12:55 22.7 °C 19.5 °C 998.5 hPa SSW 11.3 km/h 14.5 km/h 82 % 0 mm
13:00 22.8 °C 19.4 °C 998.5 hPa SSE 4.8 km/h 14.5 km/h 81 % 0 mm
13:05 22.8 °C 18.8 °C 998.2 hPa South 11.3 km/h 25.7 km/h 78 % 0 mm
13:10 22.9 °C 19.1 °C 997.9 hPa WNW 6.4 km/h 25.7 km/h 79 % 0 mm
13:15 23 °C 19 °C 997.9 hPa SSW 9.7 km/h 25.7 km/h 78 % 0 mm
13:20 23.4 °C 19.3 °C 997.9 hPa SE 6.4 km/h 17.7 km/h 78 % 0 mm
13:25 23.9 °C 19.2 °C 997.9 hPa SSW 6.4 km/h 22.5 km/h 75 % 0 mm
13:30 24.1 °C 19 °C 997.5 hPa SW 17.7 km/h 22.5 km/h 73 % 0 mm
13:35 24.1 °C 19 °C 997.5 hPa WSW 6.4 km/h 22.5 km/h 73 % 0 mm
13:40 24.2 °C 18.6 °C 997.2 hPa WSW 6.4 km/h 24.1 km/h 71 % 0 mm
13:45 24.4 °C 19 °C 997.2 hPa SSW 3.2 km/h 24.1 km/h 72 % 0 mm
13:50 24.7 °C 18.9 °C 997.2 hPa WSW 6.4 km/h 24.1 km/h 70 % 0 mm
13:55 24.6 °C 18.8 °C 996.8 hPa SSW 6.4 km/h 19.3 km/h 70 % 0 mm
14:00 24.6 °C 18.8 °C 996.8 hPa SSW 12.9 km/h 19.3 km/h 70 % 0 mm
14:05 24.5 °C 18.7 °C 996.8 hPa SW 6.4 km/h 19.3 km/h 70 % 0 mm
14:11 24.6 °C 18.5 °C 996.8 hPa SW 6.4 km/h 19.3 km/h 69 % 0 mm
14:16 24.8 °C 18.5 °C 996.8 hPa SSW 8 km/h 19.3 km/h 68 % 0 mm
14:21 24.8 °C 18.3 °C 996.8 hPa WSW 1.6 km/h 17.7 km/h 67 % 0 mm
14:26 24.9 °C 18.1 °C 996.5 hPa SW 4.8 km/h 19.3 km/h 66 % 0 mm
14:31 24.9 °C 17.6 °C 996.5 hPa SSW 6.4 km/h 19.3 km/h 64 % 0 mm
14:36 24.9 °C 17.4 °C 996.5 hPa SSW 4.8 km/h 20.9 km/h 63 % 0 mm
14:41 24.9 °C 17.4 °C 996.5 hPa SW 6.4 km/h 20.9 km/h 63 % 0 mm
14:46 25.1 °C 18.1 °C 996.2 hPa WSW 4.8 km/h 20.9 km/h 65 % 0 mm
14:51 25.2 °C 17.7 °C 996.2 hPa SSW 9.7 km/h 17.7 km/h 63 % 0 mm
14:56 25.3 °C 17.2 °C 996.2 hPa SW 6.4 km/h 17.7 km/h 61 % 0 mm
15:01 25.4 °C 16.8 °C 996.2 hPa SSW 6.4 km/h 14.5 km/h 59 % 0 mm
15:06 25.4 °C 17.3 °C 996.2 hPa SSE 8 km/h 14.5 km/h 61 % 0 mm
15:11 25.4 °C 16.8 °C 996.2 hPa SSE 4.8 km/h 14.5 km/h 59 % 0 mm
15:16 25.4 °C 16.3 °C 996.2 hPa North 3.2 km/h 14.5 km/h 57 % 0 mm
15:21 25.4 °C 16.8 °C 996.2 hPa SSW 4.8 km/h 12.9 km/h 59 % 0 mm
15:26 25.6 °C 16.7 °C 996.2 hPa SW 3.2 km/h 12.9 km/h 58 % 0 mm
15:31 25.7 °C 15.7 °C 996.2 hPa SSW 6.4 km/h 14.5 km/h 54 % 0 mm
15:36 25.6 °C 16.4 °C 996.2 hPa West 4.8 km/h 16.1 km/h 57 % 0 mm
15:41 25.6 °C 16.2 °C 996.2 hPa NW 3.2 km/h 16.1 km/h 56 % 0 mm
15:46 25.6 °C 16.2 °C 995.8 hPa SW 3.2 km/h 16.1 km/h 56 % 0 mm
15:51 25.6 °C 16.2 °C 995.8 hPa SW 8 km/h 12.9 km/h 56 % 0 mm
15:56 25.5 °C 16.1 °C 995.8 hPa WSW 3.2 km/h 12.9 km/h 56 % 0 mm
16:01 25.4 °C 15.7 °C 995.8 hPa SSW 1.6 km/h 11.3 km/h 55 % 0 mm
16:06 25.4 °C 15.4 °C 996.2 hPa SW 3.2 km/h 11.3 km/h 54 % 0 mm
16:11 25.5 °C 15.8 °C 996.2 hPa South 4.8 km/h 9.7 km/h 55 % 0 mm
16:16 25.6 °C 15.9 °C 996.2 hPa SSW 4.8 km/h 9.7 km/h 55 % 0 mm
16:21 25.4 °C 16 °C 996.2 hPa West 3.2 km/h 16.1 km/h 56 % 0 mm
16:26 25.4 °C 16.3 °C 996.2 hPa SSE 4.8 km/h 16.1 km/h 57 % 0 mm
16:31 25.2 °C 16.1 °C 996.2 hPa South 4.8 km/h 16.1 km/h 57 % 0 mm
16:36 25.1 °C 15.7 °C 996.2 hPa SW 1.6 km/h 12.9 km/h 56 % 0 mm
16:41 24.9 °C 15.5 °C 996.5 hPa SSE 1.6 km/h 12.9 km/h 56 % 0 mm
16:46 24.9 °C 15.2 °C 996.5 hPa NNW 1.6 km/h 12.9 km/h 55 % 0 mm
16:51 24.9 °C 15.8 °C 996.5 hPa South 1.6 km/h 11.3 km/h 57 % 0 mm
16:56 24.8 °C 15.4 °C 996.8 hPa SW 1.6 km/h 8 km/h 56 % 0 mm
17:01 24.7 °C 15.9 °C 996.8 hPa SW 1.6 km/h 9.7 km/h 58 % 0 mm
17:06 24.6 °C 15.5 °C 996.8 hPa SW 1.6 km/h 9.7 km/h 57 % 0 mm
17:11 24.4 °C 15.6 °C 996.8 hPa Calm   9.7 km/h 58 % 0 mm
17:16 24.2 °C 15.4 °C 996.8 hPa SSW 3.2 km/h 8 km/h 58 % 0 mm
17:21 24 °C 15.5 °C 997.2 hPa West 3.2 km/h 6.4 km/h 59 % 0 mm
17:26 23.7 °C 15.5 °C 997.2 hPa Calm   6.4 km/h 60 % 0 mm
17:31 23.4 °C 15.7 °C 997.2 hPa Calm   6.4 km/h 62 % 0 mm
17:36 23.1 °C 15.7 °C 997.2 hPa Calm   6.4 km/h 63 % 0 mm
17:41 22.8 °C 15.4 °C 996.8 hPa Calm   4.8 km/h 63 % 0 mm
17:46 22.6 °C 15.7 °C 996.8 hPa SW 1.6 km/h 4.8 km/h 65 % 0 mm
17:51 22.1 °C 15.9 °C 997.2 hPa SSW 1.6 km/h 3.2 km/h 68 % 0 mm
17:56 21.7 °C 15.8 °C 997.2 hPa Calm   3.2 km/h 69 % 0 mm
18:01 21.3 °C 15.4 °C 997.2 hPa Calm   3.2 km/h 69 % 0 mm
18:06 21.2 °C 15.5 °C 997.2 hPa Calm   3.2 km/h 70 % 0 mm
18:11 21.1 °C 15.6 °C 997.2 hPa Calm     71 % 0 mm
18:16 21 °C 15.8 °C 996.8 hPa Calm     72 % 0 mm
18:21 20.9 °C 15.7 °C 996.8 hPa Calm     72 % 0 mm
18:27 20.8 °C 15.8 °C 997.2 hPa SSE 1.6 km/h   73 % 0 mm
18:32 20.8 °C 16.2 °C 997.2 hPa South 3.2 km/h 3.2 km/h 75 % 0 mm
18:37 20.6 °C 16 °C 997.2 hPa Calm   3.2 km/h 75 % 0 mm
18:42 20.5 °C 15.9 °C 996.8 hPa Calm   3.2 km/h 75 % 0 mm
18:47 20.4 °C 16 °C 996.8 hPa Calm   3.2 km/h 76 % 0 mm
18:52 20.3 °C 15.9 °C 996.8 hPa Calm   3.2 km/h 76 % 0 mm
18:57 20 °C 15.6 °C 996.8 hPa Calm   1.6 km/h 76 % 0 mm
19:02 19.8 °C 15.9 °C 996.8 hPa Calm     78 % 0 mm
19:07 19.7 °C 16 °C 996.8 hPa Calm     79 % 0 mm
19:12 19.4 °C 15.7 °C 996.8 hPa Calm     79 % 0 mm
19:17 19.2 °C 15.7 °C 996.8 hPa Calm     80 % 0 mm
19:22 19.1 °C 15.8 °C 997.2 hPa Calm   1.6 km/h 81 % 0 mm
19:27 18.8 °C 15.7 °C 997.2 hPa SSE 1.6 km/h 1.6 km/h 82 % 0 mm
19:32 18.6 °C 15.7 °C 997.5 hPa Calm   1.6 km/h 83 % 0 mm
19:37 18.4 °C 15.6 °C 997.5 hPa Calm   1.6 km/h 84 % 0 mm
19:42 18.3 °C 15.5 °C 997.5 hPa Calm   1.6 km/h 84 % 0 mm
19:43 18.3 °C 15.5 °C 997.5 hPa Calm   1.6 km/h 84 % 0 mm
19:48 18.3 °C 15.7 °C 997.9 hPa Calm     85 % 0 mm
19:53 18.1 °C 15.5 °C 997.9 hPa Calm     85 % 0 mm
19:58 18.1 °C 15.7 °C 997.9 hPa NW 1.6 km/h 1.6 km/h 86 % 0 mm
20:03 18.1 °C 15.7 °C 997.9 hPa Calm   3.2 km/h 86 % 0 mm
20:08 18 °C 15.6 °C 997.9 hPa Calm   3.2 km/h 86 % 0 mm
20:13 17.9 °C 15.7 °C 997.9 hPa Calm   3.2 km/h 87 % 0 mm
20:18 17.8 °C 15.6 °C 997.9 hPa Calm   1.6 km/h 87 % 0 mm
20:23 17.7 °C 15.7 °C 998.2 hPa Calm   1.6 km/h 88 % 0 mm
20:28 17.6 °C 15.6 °C 997.9 hPa Calm   1.6 km/h 88 % 0 mm
20:33 17.5 °C 15.7 °C 997.9 hPa WNW 1.6 km/h 1.6 km/h 89 % 0 mm
20:38 17.5 °C 15.7 °C 997.9 hPa Calm   1.6 km/h 89 % 0 mm
20:43 17.4 °C 15.6 °C 997.5 hPa Calm   1.6 km/h 89 % 0 mm
20:48 17.3 °C 15.5 °C 997.5 hPa Calm   3.2 km/h 89 % 0 mm
20:53 17.2 °C 15.5 °C 997.2 hPa Calm   3.2 km/h 90 % 0 mm
20:58 17.1 °C 15.4 °C 997.2 hPa Calm   3.2 km/h 90 % 0 mm
21:03 16.9 °C 15.2 °C 997.2 hPa Calm   3.2 km/h 90 % 0 mm
21:08 16.8 °C 15.1 °C 997.2 hPa Calm   3.2 km/h 90 % 0 mm
21:13 16.6 °C 15.1 °C 997.5 hPa Calm   1.6 km/h 91 % 0 mm
21:18 16.4 °C 14.9 °C 997.9 hPa Calm   1.6 km/h 91 % 0 mm
21:23 16.3 °C 14.8 °C 998.2 hPa Calm   1.6 km/h 91 % 0 mm
21:28 16.3 °C 15 °C 997.9 hPa Calm   1.6 km/h 92 % 0 mm
21:33 16.3 °C 15 °C 998.2 hPa Calm   1.6 km/h 92 % 0 mm
21:38 16.4 °C 15.3 °C 998.5 hPa Calm   1.6 km/h 93 % 0 mm
21:43 16.6 °C 15.5 °C 998.9 hPa Calm   3.2 km/h 93 % 0 mm
21:48 16.8 °C 15.7 °C 999.5 hPa West 1.6 km/h 6.4 km/h 93 % 0 mm
21:53 17.2 °C 15.9 °C 999.5 hPa NNW 4.8 km/h 6.4 km/h 92 % 0 mm
21:58 17.6 °C 16.1 °C 999.5 hPa Calm   8 km/h 91 % 0 mm
22:03 18.1 °C 16.4 °C 999.2 hPa WNW 1.6 km/h 8 km/h 90 % 0 mm
22:08 18.5 °C 16.5 °C 999.5 hPa West 12.9 km/h 12.9 km/h 88 % 0 mm
22:13 18.9 °C 15.8 °C 1000.2 hPa Calm   12.9 km/h 82 % 0 mm
22:18 19 °C 15.1 °C 1000.2 hPa NW 1.6 km/h 12.9 km/h 78 % 0 mm
22:23 19.2 °C 13.6 °C 1000.2 hPa WNW 4.8 km/h 12.9 km/h 70 % 0 mm
22:28 19.8 °C 12.6 °C 1000.2 hPa WNW 6.4 km/h 19.3 km/h 63 % 0 mm
22:33 20.1 °C 12.1 °C 1000.6 hPa WNW 6.4 km/h 20.9 km/h 60 % 0 mm
22:38 20.2 °C 12.2 °C 1000.9 hPa NNW 8 km/h 20.9 km/h 60 % 0 mm
22:43 20 °C 12 °C 1000.9 hPa South 1.6 km/h 20.9 km/h 60 % 0 mm
22:49 19.8 °C 12.1 °C 1001.6 hPa NW 25.7 km/h 25.7 km/h 61 % 0 mm
22:54 18.8 °C 12.5 °C 1001.6 hPa NW 9.7 km/h 27.4 km/h 67 % 0 mm
22:59 17.9 °C 12.8 °C 1001.6 hPa West 8 km/h 27.4 km/h 72 % 0 mm
23:04 17.3 °C 12.6 °C 1001.9 hPa West 3.2 km/h 27.4 km/h 74 % 0.25 mm
23:09 17.1 °C 12 °C 1001.6 hPa WNW 9.7 km/h 25.7 km/h 72 % 0.25 mm
23:14 17.2 °C 12.1 °C 1000.9 hPa NW 14.5 km/h 16.1 km/h 72 % 0.25 mm
23:19 17.2 °C 11.9 °C 1000.9 hPa NNW 11.3 km/h 16.1 km/h 71 % 0.25 mm
23:24 17.3 °C 12 °C 1000.9 hPa WNW 8 km/h 16.1 km/h 71 % 0.25 mm
23:29 17.3 °C 12 °C 1001.2 hPa SSW 3.2 km/h 19.3 km/h 71 % 0.25 mm
23:34 17.3 °C 11.8 °C 1000.9 hPa NW 9.7 km/h 19.3 km/h 70 % 0.25 mm
23:39 17.2 °C 11.9 °C 1000.9 hPa NW 3.2 km/h 19.3 km/h 71 % 0.25 mm
23:44 17.2 °C 11.9 °C 1000.9 hPa Calm   17.7 km/h 71 % 0.25 mm
23:50 17.1 °C 11.8 °C 1000.9 hPa Calm   12.9 km/h 71 % 0.25 mm
23:55 16.9 °C 11.8 °C 1001.2 hPa Calm   8 km/h 72 % 0.25 mm
Spring, Texas: Villages of Bridgestone
Compliments of Weather Underground - 2.75 mb

Script developed by  Jim McMurry - jmcmurry@mwt.net Adapted for the template by  Wim van der Kuil - Leuven-Template.eu

You find our weather info also at:

UK Metoffice

WeatherCloud

Weather Underground

Mid-South Weather Network

AWEKAS

Citizen Weather Observer Program (CWOP)

HAMweather, WeatherForYou, PWS Weather

Equipment we use:

Weather-station
Davis Vantage Vue

Weather-program
Meteohub

Weather-server
Debian 7.9 x86 (Guest)

Provider
DreamHost

Davis Vantage Vue

Meteohub

Debian 7.9 x86 (Guest)

DreamHost